sat.trackr.live / text

‹ back to catalog

LEMUR-2-THEFALCONER

NORAD 63264 · 2025-052BG

PAYLOAD ACTIVE UNKNOWN

§ Identity

Operator
Country
US
Launch date
2025-03-15
Launch site
AFWTR
Launch vehicle
Mass (kg)
RCS (m²)

Purposes: earth_obs

External: N2YO · Heavens-Above · Gunter

§ Orbital elements

Epoch: 2026-05-25T03:43:45.238080Z

Period
96.18 min
Inclination
97.6882°
Eccentricity
0.0003248
Mean motion
14.97195939 rev/d
Perigee alt
573.3 km
Apogee alt
577.8 km
Semi-major
6,953.7 km
B*
2.6789e-4
RAAN
37.9078°
Arg perigee
79.4080°
Mean anomaly
280.7508°
Rev number
6,524

§ Raw data

LEMUR-2-THEFALCONER1 63264U 25052BG  26145.15538470  .00003041  00000+0  26789-3 0  99982 63264  97.6882  37.9078 0003248  79.4080 280.7508 14.97195939 65246

JSON: /api/v1/satellites/63264 · /tle

For live sub-satellite position, see the globe view (requires WebGL).

§ Visibility from observer

Set your observer location to see the next 7 days of passes ≥ 10°. The values pass through the URL so the page stays shareable.

No JS? Fill the form by hand. The geolocation button needs JavaScript.